Location: Salillas
(41.9950°N, 0.2228°W)
Time: 08:21:26
(UTC+00:00)

CZ-2C R/B - Pass Details

Date: 29 March 2020
Orbit: 785 x 870 km, 98.3° (Epoch: 03 June)

Event Time Altitude Azimuth Distance (km) Brightness Sun altitude
Rises 19:22:18 0° 26° (NNE) 3,294 5.7 -11.5°
Reaches altitude 10° 19:25:05 10° 40° (NE) 2,355 4.8 -12.0°
Maximum altitude 19:29:14 24° 94° (E) 1,586 3.6 -12.8°
Enters shadow 19:32:26 14° 139° (SE) 2,078 4.2 -13.3°
